Location: ???????
(54.9996°N, 37.9529°E)
Time: 05:14:37
(UTC+00:00)

ISS - Visible Passes

Search period start: 21 June 2024 00:00
Search period end: 01 July 2024 00:00
Orbit: 411 x 425 km, 51.6° (Epoch: 20 June)

Date Brightness Start Highest point End Pass type
(mag) Time Alt. Az. Time Alt. Az. Time Alt. Az.
27 Jun -1.5 23:29:42 10° S 23:31:25 13° SE 23:33:08 10° ESE visible
29 Jun -2.3 23:28:48 11° SSW 23:31:18 23° SSE 23:34:01 10° E visible
30 Jun -2.0 22:42:01 15° S 22:43:12 18° SSE 22:45:30 10° ESE visible
